This is the latest recevied weather packets stored in our database for station/object K5MFB-1. If no packets are shown the sender has not sent any weather packets the latest 10 day(s).
| Time | Temp. | Humidity | Pressure | Rain* | Wind** | Luminosity | Snow |
|---|---|---|---|---|---|---|---|
| 1777598356 | 22.22° C | 76% | 1007.1 hPa | 0 mm | 0.45 m/s, 204° | - | - |
| 1777598296 | 22.22° C | 76% | 1007.1 hPa | 0 mm | 0.45 m/s, 204° | - | - |
| 1777598236 | 22.22° C | 76% | 1007.1 hPa | 0 mm | 0.45 m/s, 204° | - | - |
| 1777598176 | 22.22° C | 76% | 1007.1 hPa | 0 mm | 0.45 m/s, 204° | - | - |
| 1777598116 | 22.22° C | 76% | 1007.3 hPa | 0 mm | 1.34 m/s, 226° | - | - |
| 1777598056 | 22.22° C | 76% | 1007.3 hPa | 0 mm | 1.34 m/s, 226° | - | - |
| 1777597996 | 22.22° C | 76% | 1007.3 hPa | 0 mm | 1.34 m/s, 226° | - | - |
| 1777597936 | 22.22° C | 76% | 1006.8 hPa | 0 mm | 1.79 m/s, 200° | - | - |
| 1777597876 | 22.22° C | 76% | 1006.8 hPa | 0 mm | 1.79 m/s, 200° | - | - |
| 1777597816 | 22.22° C | 76% | 1006.8 hPa | 0 mm | 1.79 m/s, 200° | - | - |
| 1777597756 | 22.22° C | 76% | 1006.8 hPa | 0 mm | 1.79 m/s, 200° | - | - |
| 1777597696 | 22.22° C | 76% | 1006.8 hPa | 0 mm | 1.79 m/s, 200° | - | - |
| 1777597636 | 22.22° C | 76% | 1006.8 hPa | 0 mm | 1.79 m/s, 200° | - | - |
| 1777597576 | 22.22° C | 76% | 1006.8 hPa | 0 mm | 1.79 m/s, 200° | - | - |
| 1777597516 | 22.22° C | 76% | 1006.6 hPa | 0 mm | 0.89 m/s, 195° | - | - |
| 1777597456 | 22.22° C | 76% | 1006.6 hPa | 0 mm | 0.89 m/s, 195° | - | - |
| 1777597396 | 22.22° C | 76% | 1006.6 hPa | 0 mm | 0.89 m/s, 195° | - | - |
| 1777597336 | 22.22° C | 76% | 1006.6 hPa | 0 mm | 0.89 m/s, 195° | - | - |
| 1777597276 | 22.22° C | 76% | 1006.6 hPa | 0 mm | 0.89 m/s, 195° | - | - |
| 1777597216 | 22.22° C | 76% | 1006.4 hPa | 0 mm | 0.89 m/s, 192° | - | - |
| 1777597156 | 22.22° C | 76% | 1006.4 hPa | 0 mm | 0.89 m/s, 192° | - | - |
| 1777597096 | 22.22° C | 76% | 1006.4 hPa | 0 mm | 0.89 m/s, 192° | - | - |
| 1777597036 | 22.22° C | 76% | 1006.4 hPa | 0 mm | 0.89 m/s, 192° | - | - |
| 1777596976 | 22.22° C | 76% | 1006.4 hPa | 0 mm | 0.89 m/s, 192° | - | - |
| 1777596916 | 22.78° C | 75% | 1006.1 hPa | 0 mm | 1.79 m/s, 282° | - | - |
* Rain latest hour (hover to see other rain measurements)
** Current wind speed in m/s (hover to see current wind gust speed)